Weather History for Athens, OH

Change the Weather History Date:

Saturday, February 16, 2013

  Actual Average (KPKB) Record (KPKB)
Temperature  
Mean Temperature 26 °F 35 °F  
Max Temperature 32 °F 44 °F 74 °F (1921)
Min Temperature 19 °F 26 °F -6 °F (1963)
Degree Days  
Heating Degree Days 40 30  
Month to date heating degree days 504  
Since 1 July heating degree days 3449  
Cooling Degree Days 0 0  
Month to date cooling degree days 0  
Year to date cooling degree days 0  
Moisture  
Dew Point 17 °F    
Average Humidity 72    
Maximum Humidity 94    
Minimum Humidity 43    
Precipitation  
Precipitation 0.00 in 0.09 in 0.68 in (2003)
Month to date precipitation 1.52  
Year to date precipitation 4.47  
Sea Level Pressure  
Sea Level Pressure 30.04 in    
Wind  
Wind Speed 3 mph (WNW)    
Max Wind Speed 16 mph    
Max Gust Speed 24 mph    
Visibility 10 miles    
Events Snow    
T = Trace of Precipitation, MM = Missing Value Source: NWS Daily Summary

Daily Weather History Graph

Daily Weather History Graph

Search for Another Location

Airport:

Trip Planner

Search our weather history database for the weather conditions in past years. The results will help you decide how hot, cold, wet, or windy it might be!

Date:

Astronomy

Feb. 16, 2013 Rise Set
Actual Time 7:19 AM EST 6:07 PM EST
Civil Twilight 6:51 AM EST 6:34 PM EST
Nautical Twilight 6:20 AM EST 7:06 PM EST
Astronomical Twilight 5:49 AM EST 7:37 PM EST
Moon 10:34 AM EST 12:03 AM EST
Length of Visible Light 11h 43m
Length of Day
10h 48m
Waxing Crescent, 39% of the Moon is Illuminated
Feb 16
Waxing Crescent
Feb 17
First Quarter
Feb 25
Full
Mar 4
Last Quarter
Mar 11
New

Hourly Weather History & Observations

Time (EST) Temp. Windchill Dew Point Humidity Pressure Visibility Wind Dir Wind Speed Gust Speed Precip Events Conditions
12:15 AM 29.3 °F - 22.6 °F 76% 30.10 in 10.0 mi Calm Calm - N/A   Mostly Cloudy
12:35 AM 29.3 °F - 22.8 °F 77% 30.10 in 10.0 mi Calm Calm - N/A   Overcast
12:55 AM 28.9 °F - 22.8 °F 78% 30.09 in 10.0 mi Calm Calm - N/A   Overcast
1:15 AM 28.9 °F - 23.0 °F 78% 30.09 in 10.0 mi Calm Calm - N/A   Overcast
1:35 AM 28.8 °F - 23.4 °F 80% 30.09 in 10.0 mi Calm Calm - N/A   Overcast
1:55 AM 28.0 °F 24.2 °F 23.0 °F 81% 30.09 in 10.0 mi West 3.5 mph - N/A   Overcast
2:15 AM 27.1 °F 23.2 °F 22.6 °F 83% 30.09 in 10.0 mi WNW 3.5 mph - N/A   Scattered Clouds
2:35 AM 26.6 °F - 22.5 °F 84% 30.09 in 10.0 mi Calm Calm - N/A   Scattered Clouds
2:55 AM 25.3 °F - 22.1 °F 87% 30.08 in 10.0 mi Calm Calm - N/A   Scattered Clouds
3:15 AM 25.3 °F - 22.1 °F 87% 30.07 in 10.0 mi Calm Calm - N/A   Clear
3:35 AM 23.7 °F - 21.6 °F 91% 30.06 in 10.0 mi Calm Calm - N/A   Clear
3:55 AM 23.4 °F - 21.2 °F 91% 30.06 in 10.0 mi Calm Calm - N/A   Clear
4:15 AM 22.8 °F 18.2 °F 21.0 °F 93% 30.06 in 10.0 mi West 3.5 mph - N/A   Scattered Clouds
4:35 AM 22.3 °F 17.6 °F 20.5 °F 93% 30.06 in 10.0 mi West 3.5 mph - N/A   Scattered Clouds
4:55 AM 21.6 °F 16.8 °F 19.8 °F 93% 30.06 in 10.0 mi West 3.5 mph - N/A   Scattered Clouds
5:15 AM 21.7 °F 17.0 °F 19.8 °F 92% 30.06 in 10.0 mi West 3.5 mph - N/A   Scattered Clouds
5:35 AM 22.1 °F - 19.9 °F 91% 30.06 in 10.0 mi Calm Calm - N/A   Scattered Clouds
6:35 AM 20.3 °F 15.4 °F 18.3 °F 92% 30.06 in 10.0 mi West 3.5 mph - N/A   Mostly Cloudy
6:55 AM 19.8 °F 14.7 °F 18.0 °F 93% 30.05 in 10.0 mi West 3.5 mph - N/A   Scattered Clouds
7:15 AM 19.4 °F - 17.6 °F 93% 30.06 in 10.0 mi Calm Calm - N/A   Clear
7:35 AM 19.2 °F - 17.6 °F 93% 30.06 in 10.0 mi Calm Calm - N/A   Clear
7:55 AM 20.1 °F - 18.3 °F 93% 30.06 in 7.0 mi Calm Calm - N/A   Scattered Clouds
8:15 AM 19.4 °F - 18.0 °F 94% 30.06 in 10.0 mi Calm Calm - N/A   Scattered Clouds
8:35 AM 20.8 °F - 19.2 °F 93% 30.07 in 10.0 mi Calm Calm - N/A   Clear
8:55 AM 22.3 °F - 20.5 °F 93% 30.06 in 10.0 mi Calm Calm - N/A   Clear
9:15 AM 23.9 °F - 20.7 °F 87% 30.06 in 10.0 mi Calm Calm - N/A   Clear
9:35 AM 25.2 °F 20.9 °F 20.8 °F 84% 30.06 in 10.0 mi North 3.5 mph - N/A   Clear
9:55 AM 26.2 °F - 19.0 °F 74% 30.06 in 10.0 mi Calm Calm - N/A   Clear
10:15 AM 27.1 °F - 18.3 °F 69% 30.06 in 10.0 mi Calm Calm - N/A   Clear
10:35 AM 28.8 °F 25.0 °F 14.4 °F 55% 30.05 in 10.0 mi NNE 3.5 mph - N/A   Clear
1:15 PM 30.4 °F 22.9 °F 10.9 °F 44% 29.99 in 10.0 mi NNW 8.1 mph - N/A   Overcast
1:35 PM 30.9 °F 24.3 °F 10.9 °F 43% 29.99 in 10.0 mi WNW 6.9 mph - N/A   Overcast
1:55 PM 32.0 °F 25.6 °F 12.4 °F 44% 29.98 in 10.0 mi West 6.9 mph - N/A   Overcast
2:15 PM 32.0 °F 24.8 °F 12.0 °F 44% 29.98 in 10.0 mi West 8.1 mph - N/A   Overcast
2:35 PM 31.1 °F 22.4 °F 10.8 °F 43% 29.98 in 10.0 mi WNW 10.4 mph - N/A   Overcast
2:55 PM 31.8 °F 25.4 °F 13.1 °F 46% 29.97 in 10.0 mi WSW 6.9 mph - N/A   Scattered Clouds
3:15 PM 31.1 °F 27.7 °F 12.4 °F 46% 29.97 in 10.0 mi West 3.5 mph - N/A   Mostly Cloudy
3:35 PM 32.0 °F 24.2 °F 13.8 °F 47% 29.97 in 10.0 mi NW 9.2 mph 16.1 mph N/A   Overcast
3:55 PM 31.5 °F 24.9 °F 16.0 °F 53% 29.97 in 10.0 mi NW 6.9 mph - N/A   Overcast
4:15 PM 31.1 °F 21.4 °F 17.8 °F 58% 29.97 in 10.0 mi West 12.7 mph - N/A   Mostly Cloudy
4:35 PM 29.7 °F 20.7 °F 18.9 °F 64% 29.98 in 10.0 mi NW 10.4 mph - N/A   Mostly Cloudy
4:55 PM 26.4 °F 19.8 °F 22.8 °F 86% 29.98 in 0.8 mi West 5.8 mph 17.3 mph N/A Snow Light Snow
5:15 PM 27.3 °F 20.9 °F 23.0 °F 84% 29.99 in 3.0 mi West 5.8 mph - N/A Snow Light Snow
5:35 PM 27.0 °F 20.5 °F 23.4 °F 86% 29.99 in 3.0 mi West 5.8 mph - N/A Snow Light Snow
5:55 PM 27.3 °F 15.2 °F 19.8 °F 73% 29.99 in 7.0 mi WNW 16.1 mph 24.2 mph N/A Snow Light Snow
6:15 PM 27.5 °F 17.4 °F 16.3 °F 63% 30.00 in 10.0 mi West 11.5 mph - N/A   Overcast
6:35 PM 26.8 °F 16.5 °F 14.0 °F 59% 30.00 in 10.0 mi West 11.5 mph - N/A   Mostly Cloudy
6:55 PM 26.4 °F 16.6 °F 13.1 °F 57% 30.01 in 10.0 mi West 10.4 mph - N/A   Mostly Cloudy
7:15 PM 25.5 °F 16.9 °F 12.9 °F 59% 30.01 in 10.0 mi WNW 8.1 mph - N/A   Scattered Clouds
7:35 PM 25.3 °F 13.6 °F 11.3 °F 55% 30.02 in 10.0 mi WNW 13.8 mph 20.7 mph N/A   Scattered Clouds
7:55 PM 24.4 °F 14.9 °F 12.6 °F 61% 30.02 in 10.0 mi WNW 9.2 mph 16.1 mph N/A   Clear
8:15 PM 23.9 °F 12.9 °F 12.2 °F 61% 30.02 in 10.0 mi WNW 11.5 mph - N/A   Clear
8:35 PM 23.4 °F 12.8 °F 12.6 °F 63% 30.02 in 10.0 mi WNW 10.4 mph 17.3 mph N/A   Clear
8:55 PM 23.0 °F 13.9 °F 13.3 °F 66% 30.03 in 10.0 mi WNW 8.1 mph 16.1 mph N/A   Scattered Clouds
9:15 PM 22.3 °F 12.2 °F 12.0 °F 65% 30.03 in 10.0 mi WNW 9.2 mph 19.6 mph N/A   Scattered Clouds
9:55 PM 21.2 °F 11.7 °F 10.4 °F 63% 30.04 in 10.0 mi WNW 8.1 mph - N/A   Clear
10:15 PM 21.4 °F 10.4 °F 9.7 °F 61% 30.04 in 10.0 mi WNW 10.4 mph 18.4 mph N/A   Scattered Clouds
10:35 PM 21.7 °F 10.2 °F 10.8 °F 63% 30.05 in 10.0 mi WNW 11.5 mph 21.9 mph N/A   Mostly Cloudy
10:55 PM 21.6 °F 12.1 °F 11.5 °F 65% 30.05 in 10.0 mi WNW 8.1 mph - N/A   Overcast
11:15 PM 21.2 °F 10.9 °F 11.1 °F 65% 30.05 in 10.0 mi WNW 9.2 mph - N/A   Overcast
11:35 PM 20.8 °F 9.7 °F 11.3 °F 67% 30.04 in 10.0 mi WNW 10.4 mph 18.4 mph N/A   Overcast
11:55 PM 20.7 °F 10.2 °F 12.0 °F 69% 30.04 in 10.0 mi WNW 9.2 mph - N/A Snow Light Snow